STARLINK-30964, 58402

Orbit data source: Space-Track

STARLINK-30964, 58402 is a payload satellite owned by SpaceX/Seattle (US) in LEO that was launched on Wed, 22 Nov 2023 UTC via an FALCON 9 launch vehicle from the Air Force Eastern Test Range (AFETR). Payload-class satellites include a variety of spacecraft equipped with specific instruments for various scientific and technological missions. These include communications satellites like Starlink; space stations such as the ISS; scientific satellites like the Hubble; Earth observation satellites from companies like Planet Labs, Umbra, and HawkEye 360; GPS; miniature CubeSats for education and research; and military/defense satellites.

Loading next visibility...
Identifier
58402, 2023-180A
Orbit
LEO
Country
Flag of USUS
Related business
Manufacturer
SpaceX/Seattle
Mission
Operational Commercial Communications
Bus & Motor
STARLINK V2M, Unknown motor
Mass
730 kg wet, ~700 kg dry
Launch date (UTC)
2023-11-22 (2 years ago)
Launch vehicle
FALCON 9
Launch site
Air Force Eastern Test Range (AFETR)
Object type
Payload
Rocket body
Debris
Shape & HBR
Box + 2 Pan, 14.5 m
Radar Cross Section
33.884 m², Large (>1 m²)

Expand to show TLE details & history
Last TLE update: 14 hours ago

TLE from 14 hours ago
0 STARLINK-30964
1 58402U 23180A   25250.24446555  .00002454  00000-0  19675-3 0  9998
2 58402  43.0048 332.5210 0001681 263.2672  96.7980 15.02527746 99994
Epoch: 2025-09-07T05:52Z
TLE epoch observation values (Epoch: 2025-09-07T05:52:01.823Z)
Latitude
0.00004°
Longitude
-102.05327°
Altitude
559.022 km
Speed
7.584 km/s
True Right ascension
22h 10m 05s
True Declination
0° 00' 00"
Sunlit
Object was in full shadow at epoch
Visualization orbit readout
Latitude
Unknown
Longitude
Unknown
Altitude
Unknown
Speed
Unknown
Apparent Right ascension
Unknown
Apparent Declination
Unknown
Sunlit
N/A
Visualization observer readout
Local Sidereal Time
11:42:51
Azimuth
Unknown
Elevation
Unknown
Doppler factor
Unknown
Orbital elements
Apogee altitude
562.195 km
Perigee altitude
559.862 km
Semi-major axis
6,939.165 km
Eccentricity
0.00017
Inclination
43.0048°
RAAN
332.521°
Arg. of periapsis
263.2672°
True anomaly
96.81713°
Mean anomaly
96.798°
Eccentric anomaly
96.80756°
Mean motion
3.75476 °/min
Orbital period
95.88 mins
BSTAR
0.00019675
Loading maneuver chart data...
Computing Atmospheric mass density...
Loading historical data...
Loading historical data...
Loading historical data...
Loading historical data...
Loading historical data...
Loading historical data...
Loading historical data...

Documentation

Showing up to 5 results
|